Regional Weather Roundup
Issued by NWS Green Bay, WI

Home | Current Version | Previous Version | Graphics & Text | Print | Product List | Glossary Off
Versions: 1 2 3 4 5 6 7 8 9 10 11 12 13 14 15 16 17 18 19 20 21 22 23 24 25 26 27 28 29 30 31 32 33 34 35 36 37 38 39 40 41 42 43 44 45 46 47 48 49 50

000
ASUS43 KGRB 280711
RWRGRB

NORTH-CENTRAL AND NORTHEAST WISCONSIN REGIONAL WEATHER ROUNDUP
NATIONAL WEATHER SERVICE GREEN BAY WI
200 AM CDT THU JUL 28 2016

WIZ005-009-010>012-018-019-280800-
NORTH CENTRAL WISCONSIN

CITY           SKY/WX    TMP DP  RH WIND       PRES   REMARKS
IRONWOOD       CLOUDY    61  61 100 NE3       30.02S
MANITOWISH WTR CLOUDY    62  62 100 NE7       30.03S
ARBOR VITAE    CLOUDY    64  62  95 CALM      30.02F
EAGLE RIVER    CLOUDY    60  59  97 E6        30.03S
LAND O LAKES   CLOUDY    60  59  97 NE3       30.05S
RHINELANDER    LGT RAIN  64  62  93 NE8       30.03S
PHILLIPS       CLOUDY    63  63 100 NE3       30.00F
ANTIGO         DRIZZLE   60  58  95 E8        30.01S
TOMAHAWK       CLOUDY    63  62  96 CALM      30.01S
MERRILL        RAIN      64  64 100 CALM      30.00S
$$

WIZ013-073-280800-
NORTHEAST WISCONSIN

CITY           SKY/WX    TMP DP  RH WIND       PRES   REMARKS
IRON MOUNTAIN  LGT RAIN  61  56  83 CALM      30.02S
MARINETTE      LGT RAIN N/A N/A N/A N5        30.01S
OCONTO         CLOUDY   N/A N/A N/A NE7       29.99F
$$

WIZ017-030-035>037-045-280800-
CENTRAL WISCONSIN

CITY           SKY/WX    TMP DP  RH WIND       PRES   REMARKS
MEDFORD        RAIN      62  62 100 NE7       29.98F
WAUSAU         RAIN      64  63  96 E5        29.98R
MOSINEE        LGT RAIN  63  63 100 E7        29.99F
MARSHFIELD     RAIN      66  63  90 E8        29.95F FOG
WISC RAPIDS    LGT RAIN  66  63  90 E7        29.96F
STEVENS POINT  RAIN      63  63 100 NE6       29.98S
WAUPACA        CLOUDY    67  67  99 CALM      29.97F
SHAWANO        LGT RAIN  65  63  91 E10       29.99S
CLINTONVILLE   LGT RAIN  64  63  94 NE3       29.98F
WAUTOMA        CLOUDY    66  66 100 NE8       29.95F
$$

WIZ038-039-048-051-280800-
FOX VALLEY

CITY           SKY/WX    TMP DP  RH WIND       PRES   REMARKS
NWS GREEN BAY  CLOUDY    67  67 100 NE12      29.97F
APPLETON       CLOUDY    66  64  94 NE9       29.95F
OSHKOSH        CLOUDY    70  66  87 NE8       29.96F
FOND DU LAC    CLOUDY    72  65  78 NE8       29.95F
$$

WIZ022-050-052-280800-
EAST CENTRAL WISCONSIN

CITY           SKY/WX    TMP DP  RH WIND       PRES   REMARKS
EPHRAIM        LGT RAIN  63  62  97 NE7       30.00F
WASHINGTON ISL NOT AVBL
STURGEON BAY   RAIN      64  62  93 NE7       30.00F
MANITOWOC      CLOUDY    69  63  81 NE8       29.97F
SHEBOYGAN      CLOUDY    68  64  87 NE6       29.96F
$$

LMZ563-521-522-541>543-280800-
LAKESHORE

STATION/POSITION TIME  TEMP    WIND        PRES    VSBY  WAVE
                       AIR SEA DIR/SP/G                  HT/PER
                 (UTC) (F)     (DEG/KT/KT) (MB)    (MI)  (FT/S)
SHEBOYGAN LKSHOR 0700   65     360/ 13/ 14 1014.8S
KEWAUNEE LKSHORE 0600   66      10/  4/  7 1014.8R
ALGOMA MARINA    0613          360/  9/ 14   N/A
NORTHPORT PIER   0600   67     330/ 11/ 14 1016.6R
N MID LAKE BUOY  0650   66 70   10/ 12/ 14 1016.0R         2/ 4
SISTER BAY LKSHO 0621   64      10/  9/ 11   N/A
CHAMBERS ISLAND  0600   65     360/ 13/ 16 1016.3F
MENOMINEE LKSHOR 0600   64      30/ 16/ 18 1015.2R
$$




USA.gov is the U.S. government's official web portal to all federal, state and local government web resources and services.